FW0574 Weather Reports


Display with metric or nautical units.
time (UTC)temp
F
wind
direction
speed
MPH
gust
MPH
rain 1hr
in
rain 24hr
in
rain mn
in
humidity
%
barometer
mb
20210726005105 87 23 3.0 7.0 0.00 0.00 0.00 45 1213.7
20210726004555 88 45 2.0 7.0 0.00 0.00 0.00 44 1213.7
20210726004053 87 23 3.0 5.0 0.00 0.00 0.00 44 1213.7
20210726003550 87 90 3.0 6.0 0.00 0.00 0.00 44 1213.7
20210726003045 87 23 3.0 6.0 0.00 0.00 0.00 45 1213.7
20210726002541 87 338 2.0 5.0 0.00 0.00 0.00 45 1213.7
20210726001536 87 23 3.0 8.0 0.00 0.00 0.00 45 1213.7
20210726001036 88 23 5.0 8.0 0.00 0.00 0.00 43 1213.7
20210726000530 90 90 3.0 8.0 0.00 0.00 0.00 43 1213.7
20210726000027 89 0 4.0 8.0 0.00 0.00 0.00 43 1213.7
20210725235527 90 23 4.0 8.0 0.00 0.00 0.00 41 1213.7
20210725235027 91 0 3.0 7.0 0.00 0.00 0.00 41 1213.7
20210725234524 92 23 4.0 7.0 0.00 0.00 0.00 40 1214.0
20210725234024 92 315 2.0 7.0 0.00 0.00 0.00 41 1213.7
20210725233529 91 90 3.0 10.0 0.00 0.00 0.00 41 1214.0
20210725233015 91 23 5.0 10.0 0.00 0.00 0.00 40 1213.7
20210725232516 92 23 3.0 6.0 0.00 0.00 0.00 40 1214.0
20210725232009 92 68 3.0 6.0 0.00 0.00 0.00 40 1214.0
20210725231512 92 23 3.0 7.0 0.00 0.00 0.00 40 1214.0
20210725231004 92 135 4.0 7.0 0.00 0.00 0.00 40 1214.0
20210725230505 93 23 3.0 7.0 0.00 0.00 0.00 40 1214.0
20210725230001 93 23 3.0 6.0 0.00 0.00 0.00 39 1214.4
20210725225456 93 113 4.0 6.0 0.00 0.00 0.00 40 1214.4
20210725224957 93 90 3.0 7.0 0.00 0.00 0.00 40 1214.4
20210725224453 93 113 4.0 10.0 0.00 0.00 0.00 40 1214.4
20210725223950 94 23 3.0 10.0 0.00 0.00 0.00 39 1214.4
20210725223448 93 23 2.0 7.0 0.00 0.00 0.00 40 1214.7
20210725222942 93 338 2.0 8.0 0.00 0.00 0.00 40 1214.7
20210725222445 92 23 4.0 8.0 0.00 0.00 0.00 40 1214.7
20210725221939 93 45 4.0 7.0 0.00 0.00 0.00 40 1214.7
20210725221438 92 270 3.0 9.0 0.00 0.00 0.00 40 1214.7
20210725220935 92 113 5.0 9.0 0.00 0.00 0.00 40 1214.7
20210725220437 93 23 4.0 8.0 0.00 0.00 0.00 40 1214.7
20210725215932 94 23 3.0 7.0 0.00 0.00 0.00 37 1214.7
20210725215432 94 45 3.0 8.0 0.00 0.00 0.00 37 1215.1
20210725214932 94 23 4.0 8.0 0.00 0.00 0.00 39 1215.1
20210725214431 94 45 3.0 7.0 0.00 0.00 0.00 40 1215.1
20210725213929 94 23 4.0 7.0 0.00 0.00 0.00 37 1215.1
20210725213428 94 68 4.0 7.0 0.00 0.00 0.00 39 1215.1
20210725212926 93 338 3.0 7.0 0.00 0.00 0.00 39 1215.1
20210725212426 92 23 5.0 9.0 0.00 0.00 0.00 39 1215.1
20210725211919 93 23 5.0 8.0 0.00 0.00 0.00 37 1215.4
20210725211425 95 23 4.0 8.0 0.00 0.00 0.00 37 1215.1
20210725210915 96 23 3.0 8.0 0.00 0.00 0.00 37 1215.4
20210725210411 95 270 4.0 8.0 0.00 0.00 0.00 35 1215.4
20210725205913 97 90 4.0 7.0 0.00 0.00 0.00 32 1215.4
20210725205409 97 270 2.0 4.0 0.00 0.00 0.00 35 1215.7
20210725204910 97 45 2.0 6.0 0.00 0.00 0.00 34 1215.7
20210725204405 96 23 3.0 6.0 0.00 0.00 0.00 34 1215.7
20210725203903 96 68 2.0 6.0 0.00 0.00 0.00 35 1215.7
20210725203359 96 23 3.0 6.0 0.00 0.00 0.00 31 1215.4
20210725202856 96 45 3.0 6.0 0.00 0.00 0.00 31 1215.7
20210725202355 96 45 2.0 4.0 0.00 0.00 0.00 32 1215.7
20210725201851 97 23 2.0 4.0 0.00 0.00 0.00 30 1216.1
20210725201350 96 0 2.0 4.0 0.00 0.00 0.00 35 1216.1
20210725200849 96 0 2.0 3.0 0.00 0.00 0.00 34 1216.1
20210725200348 96 23 1.0 3.0 0.00 0.00 0.00 35 1216.4
20210725195847 94 158 2.0 3.0 0.00 0.00 0.00 34 1216.4
20210725195344 94 90 1.0 5.0 0.00 0.00 0.00 34 1216.4
20210725194844 94 45 3.0 5.0 0.00 0.00 0.00 34 1216.4
20210725194345 93 23 2.0 4.0 0.00 0.00 0.00 35 1216.8
20210725193844 93 23 2.0 5.0 0.00 0.00 0.00 35 1216.4
20210725193340 93 45 3.0 5.0 0.00 0.00 0.00 35 1216.8
20210725192841 92 23 2.0 5.0 0.00 0.00 0.00 35 1216.8
20210725192339 92 45 2.0 5.0 0.00 0.00 0.00 35 1216.8
20210725191837 90 45 1.0 3.0 0.00 0.00 0.00 39 1216.8
20210725191337 90 23 1.0 3.0 0.00 0.00 0.00 39 1216.8
20210725190836 90 68 2.0 4.0 0.00 0.00 0.00 40 1217.1
20210725190333 91 90 2.0 5.0 0.00 0.00 0.00 37 1217.1
20210725185830 91 113 2.0 5.0 0.00 0.00 0.00 37 1217.1
20210725185329 89 270 2.0 5.0 0.00 0.00 0.00 40 1217.1
20210725184827 90 68 2.0 4.0 0.00 0.00 0.00 39 1217.4
20210725184319 88 45 1.0 4.0 0.00 0.00 0.00 44 1217.4
20210725183822 84 225 2.0 4.0 0.00 0.00 0.00 43 1217.4
20210725183316 84 90 2.0 4.0 0.00 0.00 0.00 44 1217.4
20210725182811 85 293 2.0 4.0 0.00 0.00 0.00 41 1217.4
20210725182311 84 23 2.0 4.0 0.00 0.00 0.00 43 1217.8
20210725181809 85 158 2.0 4.0 0.00 0.00 0.00 41 1217.4
20210725181308 85 338 2.0 4.0 0.00 0.00 0.00 44 1217.8
20210725180805 85 338 2.0 4.0 0.00 0.00 0.00 43 1217.8
20210725180303 83 45 2.0 4.0 0.00 0.00 0.00 45 1217.8
20210725175801 84 45 2.0 4.0 0.00 0.00 0.00 45 1217.8
20210725175256 82 203 2.0 3.0 0.00 0.00 0.00 45 1218.1
20210725174758 82 180 2.0 4.0 0.00 0.00 0.00 44 1218.1
20210725174256 84 45 2.0 4.0 0.00 0.00 0.00 44 1218.1
20210725173753 82 45 2.0 4.0 0.00 0.00 0.00 45 1218.1
20210725173245 81 23 2.0 3.0 0.00 0.00 0.00 48 1218.1
20210725172750 80 338 2.0 3.0 0.00 0.00 0.00 50 1218.1
20210725172220 82 338 2.0 4.0 0.00 0.00 0.00 49 1218.1
20210725171717 82 45 2.0 4.0 0.00 0.00 0.00 48 1218.1
20210725171219 81 270 2.0 3.0 0.00 0.00 0.00 49 1218.1
20210725170710 78 315 1.0 3.0 0.00 0.00 0.00 51 1218.4
20210725170212 79 113 2.0 3.0 0.00 0.00 0.00 50 1218.4
20210725165710 80 23 2.0 3.0 0.00 0.00 0.00 49 1218.4
20210725165207 78 45 2.0 3.0 0.00 0.00 0.00 53 1218.4
20210725164702 76 180 2.0 3.0 0.00 0.00 0.00 55 1218.4
20210725164158 79 45 2.0 3.0 0.00 0.00 0.00 50 1218.4
20210725163659 79 225 1.0 3.0 0.00 0.00 0.00 51 1218.4
20210725163155 77 23 1.0 3.0 0.00 0.00 0.00 54 1218.4
20210725162648 78 23 2.0 4.0 0.00 0.00 0.00 54 1218.4
20210725162149 77 23 2.0 4.0 0.00 0.00 0.00 54 1218.8
20210725161645 77 23 1.0 2.0 0.00 0.00 0.00 55 1218.8
20210725161146 75 45 0.0 2.0 0.00 0.00 0.00 58 1218.4
20210725160641 75 68 1.0 4.0 0.00 0.00 0.00 59 1218.8
20210725160142 76 45 2.0 4.0 0.00 0.00 0.00 58 1218.8
20210725155639 71 113 1.0 2.0 0.00 0.00 0.00 63 1219.1
20210725155137 74 23 1.0 2.0 0.00 0.00 0.00 61 1218.8
20210725154640 70 225 0.0 2.0 0.00 0.00 0.00 68 1218.8
20210725154135 72 23 0.0 2.0 0.00 0.00 0.00 65 1218.8
20210725153634 70 90 0.0 2.0 0.00 0.00 0.00 69 1218.8
20210725153137 68 23 0.0 0.0 0.00 0.00 0.00 71 1218.8
20210725152631 67 45 0.0 2.0 0.00 0.00 0.00 74 1218.8
20210725152131 65 315 0.0 2.0 0.00 0.00 0.00 75 1218.8
20210725151631 65 23 0.0 1.0 0.00 0.00 0.00 76 1218.8
20210725151126 64 23 0.0 3.0 0.00 0.00 0.00 79 1218.8
20210725150623 64 68 1.0 3.0 0.00 0.00 0.00 80 1218.8
20210725150118 62 45 0.0 1.0 0.00 0.00 0.00 83 1218.8
20210725145618 62 23 0.0 2.0 0.00 0.00 0.00 83 1218.8
20210725145114 61 23 0.0 2.0 0.00 0.00 0.00 83 1218.8
20210725144613 60 45 0.0 2.0 0.00 0.00 0.00 83 1218.8
20210725144109 60 135 0.0 2.0 0.00 0.00 0.00 83 1218.4
20210725143612 60 23 0.0 2.0 0.00 0.00 0.00 83 1218.8
20210725143109 59 68 0.0 2.0 0.00 0.00 0.00 86 1218.8
20210725142603 59 23 0.0 2.0 0.00 0.00 0.00 86 1218.8
20210725142013 59 293 0.0 2.0 0.00 0.00 0.00 86 1218.8
20210725141514 58 90 0.0 2.0 0.00 0.00 0.00 86 1218.8
20210725141012 58 23 0.0 2.0 0.00 0.00 0.00 86 1218.8
20210725140510 58 90 1.0 2.0 0.00 0.00 0.00 88 1218.8
20210725140009 58 23 0.0 2.0 0.00 0.00 0.00 88 1218.8
20210725135510 57 45 0.0 2.0 0.00 0.00 0.00 88 1218.8
20210725135006 57 45 0.0 3.0 0.00 0.00 0.00 90 1218.8
20210725134508 56 45 1.0 3.0 0.00 0.00 0.00 90 1218.8
20210725134008 56 23 1.0 2.0 0.00 0.00 0.00 90 1218.8
20210725133500 57 23 1.0 2.0 0.00 0.00 0.00 88 1218.8
20210725132956 57 203 0.0 2.0 0.00 0.00 0.00 88 1218.8
20210725132452 56 45 0.0 2.0 0.00 0.00 0.00 90 1218.8
20210725131953 56 0 0.0 0.0 0.00 0.00 0.00 90 1218.4
20210725131447 56 135 0.0 0.0 0.00 0.00 0.00 90 1218.8
20210725130948 56 23 0.0 1.0 0.00 0.00 0.00 90 1218.4
20210725130443 56 113 0.0 2.0 0.00 0.00 0.00 90 1218.4
20210725125943 56 113 0.0 2.0 0.00 0.00 0.00 90 1218.4
20210725125440 56 90 0.0 0.0 0.00 0.00 0.00 90 1218.4
20210725124935 56 45 0.0 0.0 0.00 0.00 0.00 90 1218.4
20210725124435 56 45 0.0 0.0 0.00 0.00 0.00 88 1218.4
20210725123930 56 23 0.0 0.0 0.00 0.00 0.00 88 1218.4
20210725123428 56 23 0.0 0.0 0.00 0.00 0.00 88 1218.1
20210725122927 56 23 0.0 0.0 0.00 0.00 0.00 88 1218.1
20210725122422 56 23 0.0 0.0 0.00 0.00 0.00 88 1218.4
20210725121916 56 45 0.0 2.0 0.00 0.00 0.00 88 1218.4
20210725121415 57 23 0.0 2.0 0.00 0.00 0.00 88 1218.4
20210725120914 57 45 0.0 0.0 0.00 0.00 0.00 88 1218.4
20210725120418 57 45 0.0 1.0 0.00 0.00 0.00 88 1218.1
20210725115916 57 23 0.0 3.0 0.00 0.00 0.00 86 1218.4
20210725115414 57 45 0.0 3.0 0.00 0.00 0.00 86 1218.1
20210725114914 57 90 0.0 0.0 0.00 0.00 0.00 86 1218.1
20210725114412 57 23 0.0 0.0 0.00 0.00 0.00 86 1218.1
20210725113914 57 338 0.0 0.0 0.00 0.00 0.00 86 1218.1
20210725113410 57 45 0.0 0.0 0.00 0.00 0.00 86 1218.1
20210725112905 57 23 0.0 0.0 0.00 0.00 0.00 86 1218.1
20210725112403 57 45 0.0 0.0 0.00 0.00 0.00 86 1218.1
20210725111905 57 45 0.0 0.0 0.00 0.00 0.00 86 1217.8
20210725111358 57 23 0.0 0.0 0.00 0.00 0.00 86 1218.1
20210725110857 58 23 0.0 0.0 0.00 0.00 0.00 86 1217.8
20210725110352 58 23 0.0 0.0 0.00 0.00 0.00 85 1217.8
20210725105852 58 23 0.0 0.0 0.00 0.00 0.00 85 1217.8
20210725105353 58 23 0.0 0.0 0.00 0.00 0.00 86 1218.1
20210725104845 58 23 0.0 0.0 0.00 0.00 0.00 86 1218.4
20210725104342 58 135 0.0 0.0 0.00 0.00 0.00 85 1218.1
20210725103840 58 23 0.0 0.0 0.00 0.00 0.00 88 1218.1
20210725103339 58 45 0.0 0.0 0.00 0.00 0.00 90 1218.1
20210725102839 59 23 0.0 2.0 0.00 0.00 0.00 93 1217.8
20210725102340 59 23 1.0 2.0 0.00 0.00 0.00 93 1218.1
20210725101824 59 23 1.0 2.0 0.00 0.00 0.00 93 1218.1
20210725101324 59 45 0.0 0.0 0.00 0.00 0.00 93 1217.8
20210725100823 59 23 0.0 0.0 0.00 0.00 0.00 93 1217.8
20210725100319 59 23 0.0 0.0 0.00 0.00 0.00 93 1217.8
20210725095820 59 23 0.0 0.0 0.00 0.00 0.00 93 1217.8
20210725095313 59 23 0.0 0.0 0.00 0.00 0.00 93 1217.8
20210725094812 59 45 0.0 0.0 0.00 0.00 0.00 93 1217.8
20210725094313 59 23 0.0 0.0 0.00 0.00 0.00 93 1217.8
20210725093808 59 23 0.0 0.0 0.00 0.00 0.00 93 1217.8
20210725093306 59 45 0.0 2.0 0.00 0.00 0.00 93 1217.8
20210725092803 59 23 0.0 2.0 0.00 0.00 0.00 93 1217.8
20210725092259 59 23 0.0 2.0 0.00 0.00 0.00 93 1217.4
20210725091753 59 23 0.0 0.0 0.00 0.00 0.00 91 1217.4
20210725091252 59 23 0.0 2.0 0.00 0.00 0.00 91 1217.8
20210725090749 59 23 0.0 2.0 0.00 0.00 0.00 90 1217.4
20210725090247 59 23 0.0 0.0 0.00 0.00 0.00 90 1217.4
20210725085746 60 0 0.0 0.0 0.00 0.00 0.00 90 1217.4
20210725085239 60 23 0.0 0.0 0.00 0.00 0.00 90 1217.4
20210725084739 59 23 0.0 2.0 0.00 0.00 0.00 91 1217.4
20210725084237 59 23 0.0 2.0 0.00 0.00 0.00 91 1217.1
20210725083738 60 23 0.0 0.0 0.00 0.00 0.00 90 1217.4
20210725083234 60 23 0.0 0.0 0.00 0.00 0.00 88 1217.4
20210725082725 60 23 0.0 0.0 0.00 0.00 0.00 88 1217.4
20210725082227 60 23 0.0 0.0 0.00 0.00 0.00 88 1217.4
20210725081721 60 23 0.0 0.0 0.00 0.00 0.00 88 1217.4
20210725081223 60 23 0.0 0.0 0.00 0.00 0.00 88 1217.4
20210725080720 60 23 0.0 0.0 0.00 0.00 0.00 88 1217.4
20210725080215 60 45 0.0 2.0 0.00 0.00 0.00 88 1217.1
20210725075718 61 23 0.0 2.0 0.00 0.00 0.00 88 1217.4
20210725075216 60 23 1.0 2.0 0.00 0.00 0.00 88 1217.4
20210725074715 61 23 0.0 1.0 0.00 0.00 0.00 88 1217.4
20210725074213 61 23 0.0 1.0 0.00 0.00 0.00 88 1217.4
20210725073713 61 23 0.0 1.0 0.00 0.00 0.00 86 1217.4
20210725073214 61 0 0.0 0.0 0.00 0.00 0.00 86 1217.4
20210725072711 62 23 0.0 2.0 0.00 0.00 0.00 86 1217.4
20210725072210 62 23 0.0 2.0 0.00 0.00 0.00 86 1217.4
20210725071710 62 23 0.0 2.0 0.00 0.00 0.00 86 1217.4
20210725071211 62 45 1.0 2.0 0.00 0.00 0.00 86 1217.8
20210725070705 62 23 1.0 2.0 0.00 0.00 0.00 86 1217.4
20210725070205 62 23 1.0 3.0 0.00 0.00 0.00 86 1217.8
20210725065701 62 23 1.0 3.0 0.00 0.00 0.00 86 1217.8
20210725065159 62 23 0.0 2.0 0.00 0.00 0.00 86 1217.8
20210725064659 62 23 0.0 2.0 0.00 0.00 0.00 86 1217.4
20210725064153 62 23 1.0 3.0 0.00 0.00 0.00 86 1217.8
20210725063646 62 23 2.0 3.0 0.00 0.00 0.00 86 1217.8
20210725063145 62 23 2.0 3.0 0.00 0.00 0.00 86 1217.8
20210725062636 62 0 1.0 2.0 0.00 0.00 0.00 86 1217.8
20210725062143 63 45 0.0 1.0 0.00 0.00 0.00 83 1217.8
20210725061636 63 23 0.0 1.0 0.00 0.00 0.00 83 1217.8
20210725061132 63 23 0.0 2.0 0.00 0.00 0.00 83 1217.8
20210725060633 63 23 0.0 3.0 0.00 0.00 0.00 83 1218.1
20210725060125 63 23 1.0 3.0 0.00 0.00 0.00 83 1217.8
20210725055620 63 23 1.0 3.0 0.00 0.00 0.00 83 1217.8
20210725055120 63 23 2.0 3.0 0.00 0.00 0.00 83 1217.8
20210725054618 64 23 1.0 2.0 0.00 0.00 0.00 83 1217.4
20210725054123 64 23 0.0 2.0 0.00 0.00 0.00 83 1217.8
20210725053620 64 45 1.0 2.0 0.00 0.00 0.00 83 1217.8
20210725053117 64 23 1.0 3.0 0.00 0.00 0.00 83 1217.8
20210725052616 64 68 1.0 3.0 0.00 0.00 0.00 81 1217.8
20210725052108 65 23 1.0 3.0 0.00 0.00 0.00 81 1217.4
20210725051607 65 23 1.0 3.0 0.00 0.00 0.00 81 1217.4
20210725051108 65 68 2.0 3.0 0.00 0.00 0.00 81 1217.4
20210725050600 65 0 2.0 4.0 0.00 0.00 0.00 81 1217.8
20210725050059 65 0 2.0 4.0 0.00 0.00 0.00 80 1217.4
20210725045557 65 23 1.0 3.0 0.00 0.00 0.00 79 1217.4
20210725045055 66 45 1.0 3.0 0.00 0.00 0.00 79 1217.4
20210725044555 66 45 2.0 3.0 0.00 0.00 0.00 79 1217.4
20210725044046 66 23 2.0 3.0 0.00 0.00 0.00 78 1217.4
20210725043552 66 23 1.0 3.0 0.00 0.00 0.00 76 1217.4
20210725043046 67 68 2.0 4.0 0.00 0.00 0.00 76 1217.1
20210725042546 67 315 2.0 4.0 0.00 0.00 0.00 76 1217.4
20210725042042 67 0 2.0 4.0 0.00 0.00 0.00 75 1217.1
20210725041535 67 23 2.0 4.0 0.00 0.00 0.00 75 1217.1
20210725041033 67 23 2.0 4.0 0.00 0.00 0.00 74 1217.1
20210725040529 68 23 2.0 4.0 0.00 0.00 0.00 74 1217.1
20210725040028 68 23 2.0 4.0 0.00 0.00 0.00 74 1216.8
20210725035530 68 45 1.0 4.0 0.00 0.00 0.00 71 1216.8
20210725035028 69 338 2.0 4.0 0.00 0.00 0.00 70 1216.8
20210725034527 69 45 2.0 5.0 0.00 0.00 0.00 70 1216.8
20210725034025 69 23 2.0 5.0 0.00 0.00 0.00 70 1216.4
20210725033522 70 23 2.0 4.0 0.00 0.00 0.00 69 1216.4
20210725033028 70 45 3.0 5.0 0.00 0.00 0.00 68 1216.1
20210725032523 71 23 3.0 5.0 0.00 0.00 0.00 66 1216.1
20210725032021 71 23 3.0 5.0 0.00 0.00 0.00 65 1216.1
20210725031518 72 45 2.0 4.0 0.00 0.00 0.00 63 1216.1
20210725031020 72 23 2.0 4.0 0.00 0.00 0.00 63 1216.1
20210725030519 73 23 2.0 4.0 0.00 0.00 0.00 61 1216.1
20210725030020 74 23 1.0 3.0 0.00 0.00 0.00 60 1215.7
20210725025515 74 45 1.0 5.0 0.00 0.00 0.00 60 1215.7
20210725025013 74 90 3.0 6.0 0.00 0.00 0.00 59 1215.7
20210725024511 74 45 3.0 6.0 0.00 0.00 0.00 58 1215.7
20210725024008 75 23 3.0 5.0 0.00 0.00 0.00 55 1215.4
20210725023509 76 45 3.0 6.0 0.00 0.00 0.00 55 1215.4
20210725022958 76 23 4.0 6.0 0.00 0.00 0.00 54 1215.1
20210725022451 78 23 3.0 5.0 0.00 0.00 0.00 53 1215.1
20210725021953 79 0 2.0 4.0 0.00 0.00 0.00 50 1215.1
20210725021444 80 90 3.0 5.0 0.00 0.00 0.00 50 1215.1
20210725020942 81 45 3.0 5.0 0.00 0.00 0.00 49 1215.1
20210725020440 82 0 3.0 6.0 0.00 0.00 0.00 46 1214.7
20210725015935 84 23 3.0 6.0 0.00 0.00 0.00 45 1214.7
20210725015432 85 338 1.0 6.0 0.00 0.00 0.00 45 1214.7
20210725014851 84 45 2.0 7.0 0.00 0.00 0.00 44 1214.7
20210725014345 85 45 3.0 7.0 0.00 0.00 0.00 44 1214.7
20210725013844 85 23 4.0 6.0 0.00 0.00 0.00 44 1214.7
20210725013340 88 23 2.0 6.0 0.00 0.00 0.00 40 1214.4
20210725012831 88 23 2.0 6.0 0.00 0.00 0.00 43 1214.7
20210725012323 89 270 2.0 6.0 0.00 0.00 0.00 40 1214.7
20210725011813 89 45 2.0 6.0 0.00 0.00 0.00 41 1214.7
20210725011302 89 293 2.0 6.0 0.00 0.00 0.00 43 1214.7
20210725010756 87 45 4.0 6.0 0.00 0.00 0.00 41 1214.7
20210725010258 90 45 2.0 7.0 0.00 0.00 0.00 40 1215.1
20210725005754 89 68 3.0 7.0 0.00 0.00 0.00 41 1215.1
20210725005253 90 23 4.0 7.0 0.00 0.00 0.00 40 1215.1